RH
69 68 69 69 70 70 71 71 71 70 68 68 68 69 69 68 69 80 85 74 71 67 61 74 83 83 89 89 67 60 79 82 54 49 38 38 40 36 35 37 45 48 51 50 90
69 69 69 70 70 71 72 72 71 71 70 67 70 70 71 65 76 88 69 65 61 65 80 86 90 86 94 87 79 73 81 59 50 41 47 41 37 33 38 42 46 51 86 94 97
70 70 70 71 71 72 72 72 71 72 72 68 71 66 70 68 84 77 54 64 60 57 76 77 76 84 94 79 76 80 71 50 53 46 46 45 46 39 40 42 33 40 84 99 96
70 70 71 72 73 73 73 73 74 73 72 71 69 66 66 66 37 54 52 54 66 58 73 69 84 86 90 90 71 82 66 58 56 48 50 50 48 42 35 33 34 36 78 95 98
70 70 71 73 74 74 74 76 76 74 73 71 71 65 65 79 83 56 56 70 71 70 81 73 86 80 82 82 73 78 64 60 57 56 56 51 55 50 45 33 42 58 82 92 93
70 71 72 73 75 75 75 77 74 72 75 72 74 69 73 94 54 48 64 66 77 78 87 73 73 72 75 62 73 66 61 58 55 55 56 59 58 57 47 41 48 65 79 85 90
71 71 72 74 75 76 77 76 70 77 77 74 71 77 74 80 56 59 43 69 71 78 83 69 64 70 69 64 53 53 61 58 58 54 59 56 67 62 42 42 44 52 59 75 85
72 72 76 77 78 79 80 77 75 80 76 80 75 78 88 61 64 65 55 57 63 73 65 62 40 55 47 47 44 53 63 71 51 51 50 48 61 50 46 50 48 47 48 57 73
72 73 74 79 82 80 84 78 70 74 80 75 83 83 89 51 37 28 27 42 35 31 51 24 33 44 49 59 66 62 74 70 56 47 50 54 65 47 39 48 49 54 52 54 62
73 76 80 82 81 78 82 66 67 63 71 67 72 91 75 68 36 25 24 27 31 33 34 34 44 49 52 56 84 80 76 73 63 46 58 60 68 53 46 50 52 58 62 66 67
75 80 82 82 78 79 70 63 58 50 66 50 55 81 69 54 31 28 26 28 36 37 54 43 60 70 58 54 59 61 66 67 56 46 50 55 56 48 52 54 62 68 71 76 72
78 81 82 81 76 72 67 74 59 56 90 67 73 74 63 62 65 51 27 33 42 49 46 57 63 52 48 48 52 54 57 58 52 44 48 51 49 60 63 72 71 72 76 77 86
79 80 79 78 76 77 73 60 56 81 96 76 70 73 66 67 68 66 30 36 42 52 54 61 49 42 46 54 52 54 57 57 53 50 46 53 53 60 69 67 66 71 73 76 88
77 78 76 78 73 91 89 61 63 74 91 73 76 68 37 47 49 37 34 39 47 47 50 55 41 44 58 56 51 58 50 48 54 62 75 43 90 56 70 71 75 86 81 82 80
76 77 77 72 93 96 68 63 67 84 91 57 66 35 39 42 42 39 31 34 48 54 57 57 52 56 55 51 48 58 48 56 59 64 62 58 69 73 69 71 91 96 85 84 84
77 78 75 75 94 80 72 70 77 88 95 73 53 52 52 52 49 38 35 31 38 42 44 45 38 42 50 36 40 39 44 47 54 59 97 77 73 88 89 89 98 93 82 84 85
78 78 71 62 87 68 76 92 91 95 60 72 57 43 58 62 59 45 41 42 52 65 74 65 44 38 36 42 38 45 58 81 89 94 87 63 66 91 97 97 93 94 91 90 88
77 75 61 67 76 78 82 91 98 72 63 58 48 60 65 66 51 61 70 80 79 76 81 83 87 42 36 49 50 48 61 81 94 97 91 79 85 92 96 97 94 92 91 82 86
69 64 89 81 65 82 74 93 88 65 56 59 64 67 71 74 58 61 91 95 98 98 95 96 93 45 37 38 58 75 70 93 93 91 95 84 94 85 93 95 95 94 84 86 82
86 96 92 74 76 92 92 72 80 59 50 54 66 68 78 86 76 85 85 93 86 90 96 96 93 65 46 69 79 79 81 97 97 97 96 97 97 94 100 99 98 97 95 92 84
95 94 73 65 73 84 94 94 94 58 51 62 66 65 77 89 84 84 95 90 84 72 92 96 97 95 65 84 94 98 96 96 96 97 96 96 97 95 92 93 95 96 94 92 90
96 95 66 74 78 83 91 75 66 64 50 54 54 60 85 83 90 87 88 89 76 71 82 91 98 94 97 97 97 97 97 93 97 97 94 95 97 98 93 97 97 96 85 78 76
92 82 78 70 88 92 80 71 67 64 71 83 90 85 73 84 86 87 97 85 79 66 84 81 95 97 83 93 95 96 96 94 95 96 97 96 98 95 95 97 96 94 96 95 73
99 99 86 86 92 86 95 81 76 65 82 86 92 82 77 87 77 90 72 74 76 59 54 74 98 93 97 87 90 94 77 95 90 96 96 94 97 96 97 94 96 97 97 73 74
97 96 99 89 87 92 93 95 90 91 88 87 84 77 94 97 92 84 74 78 71 72 85 83 91 91 80 78 75 88 84 87 96 85 88 84 95 94 94 96 95 98 80 66 68
99 99 99 96 96 96 89 95 87 91 94 87 95 85 94 96 92 96 87 93 88 85 90 93 96 94 94 76 77 92 86 80 75 74 77 78 88 84 84 92 87 67 65 67 67
99 94 99 88 96 99 98 97 95 92 76 86 97 98 97 97 97 89 74 79 85 92 96 98 97 96 96 78 78 91 80 67 70 74 74 88 70 70 83 83 78 66 67 70 69
Wind_Speed
23 23 24 24 24 24 23 22 22 21 20 19 18 16 15 14 14 9 19 13 14 19 2 5 6 6 6 5 5 5 3 6 10 9 5 3 0 2 1 5 3 2 1 4 13
23 24 25 26 26 27 26 25 23 22 20 17 15 15 14 13 11 19 19 22 23 12 12 14 14 10 5 7 6 6 9 14 7 8 3 3 4 5 1 1 0 1 5 7 13
25 26 27 27 28 28 28 26 24 22 20 18 13 11 8 6 7 9 4 23 23 22 8 10 11 10 6 5 8 7 15 13 3 4 0 3 3 4 1 3 6 6 6 8 13
26 27 28 29 29 29 28 27 24 20 19 17 14 8 4 4 6 4 10 9 20 14 8 6 7 9 8 11 7 6 9 13 2 7 3 4 2 3 6 6 1 6 13 11 13
27 28 29 29 30 30 29 26 24 22 18 15 11 6 4 6 12 8 14 11 9 17 19 11 7 8 9 6 3 6 6 6 11 11 7 5 6 8 5 8 5 10 13 16 12
27 29 30 31 32 32 30 27 26 24 19 12 8 9 5 7 5 6 4 2 6 14 14 13 9 7 6 5 16 4 10 14 10 9 6 6 10 7 7 8 7 11 14 14 16
28 30 30 31 32 33 32 29 28 26 10 9 8 7 9 16 3 4 8 2 5 6 9 8 2 10 6 1 4 4 6 6 6 6 8 7 10 13 16 7 10 12 13 14 16
29 30 31 31 32 32 32 29 25 10 2 6 12 6 9 5 5 5 3 2 3 6 4 8 5 3 3 2 4 3 3 8 5 11 7 10 8 8 9 8 11 14 11 11 11
30 31 32 31 32 32 30 28 17 8 1 9 5 4 9 3 3 5 6 4 5 4 4 4 7 6 3 4 3 3 4 5 5 8 5 11 4 8 9 9 10 2 8 10 8
29 30 30 31 32 33 26 26 9 3 2 4 1 2 4 4 2 3 4 6 4 5 4 4 3 4 4 7 17 8 5 3 5 4 5 6 5 6 5 3 3 4 4 6 9
28 29 30 30 34 32 12 6 9 5 5 4 7 5 6 7 1 4 3 5 4 4 7 4 5 11 14 17 7 1 5 5 3 4 3 6 6 7 3 6 5 6 6 4 5
28 29 30 31 34 18 5 6 5 6 16 17 17 13 13 1 5 4 6 6 6 6 5 2 12 7 7 7 9 8 11 12 4 7 3 6 13 3 3 3 3 4 5 5 4
28 28 28 31 34 4 1 4 5 2 8 7 4 4 5 9 7 7 10 5 4 6 7 7 6 7 10 6 10 10 14 7 11 4 5 2 6 5 2 4 4 5 4 4 5
29 30 30 32 9 5 4 3 6 3 6 8 3 2 3 3 4 1 5 5 3 10 7 7 11 8 6 8 10 13 8 11 9 5 6 9 6 5 4 3 3 6 6 6 6
29 30 31 25 5 4 6 8 6 2 6 1 2 1 2 3 1 1 1 2 5 5 6 7 3 5 8 11 10 7 6 9 7 8 1 5 3 3 5 4 2 3 5 6 6
29 32 33 9 2 7 7 8 1 3 12 3 3 5 5 3 1 1 1 3 0 2 2 7 2 1 3 3 3 7 6 5 4 3 5 8 9 4 5 3 3 2 3 6 6
30 33 23 4 4 6 5 3 2 7 6 6 6 8 5 4 4 1 3 2 2 1 3 1 3 0 2 4 3 3 6 2 1 1 7 2 9 3 3 3 3 6 4 5 5
29 33 14 4 6 6 4 4 6 3 4 3 6 10 2 10 6 8 6 4 5 3 1 3 4 6 4 3 6 6 5 5 8 6 4 0 7 3 3 3 6 6 6 6 6
24 9 5 4 6 1 4 2 4 7 6 8 10 3 5 5 5 7 1 6 5 7 1 3 3 3 3 2 3 1 3 1 5 2 3 4 1 3 3 5 5 4 6 6 5
7 5 5 6 6 4 4 4 3 14 12 6 6 6 6 8 8 8 7 7 9 11 6 8 6 2 2 2 6 4 5 3 3 5 6 2 4 5 5 6 5 5 5 5 4
4 6 5 12 3 4 4 6 5 10 15 6 5 4 2 3 2 4 4 4 4 8 6 5 2 4 2 2 2 2 3 3 1 0 2 4 3 4 7 7 9 7 6 5 4
3 5 4 6 6 3 4 7 7 7 9 6 3 3 2 2 2 2 1 4 4 4 2 2 3 3 2 3 4 3 0 3 3 3 2 1 2 3 7 7 8 7 5 4 4
5 5 4 4 3 5 6 6 4 7 5 4 3 3 3 2 3 1 2 3 3 4 3 4 2 4 2 2 5 4 2 4 4 2 1 3 2 4 10 9 8 10 7 5 6
2 5 5 5 2 4 6 4 9 6 4 3 5 5 1 2 3 3 2 3 3 3 8 5 2 2 2 3 2 4 7 5 4 3 2 1 4 11 11 10 8 7 7 6 6
3 3 4 5 4 8 4 3 6 8 3 4 4 4 4 3 1 2 1 5 2 6 3 5 3 3 5 6 4 3 6 2 2 3 4 2 3 7 9 12 11 6 7 7 7
3 3 3 6 4 8 5 2 5 4 3 6 4 12 10 6 5 3 3 3 6 6 3 4 2 2 4 2 6 6 7 7 4 3 1 5 2 4 4 7 6 8 7 6 6
0 2 2 6 4 4 3 5 6 11 4 3 12 10 5 3 2 4 6 2 3 5 2 1 3 3 4 4 4 2 6 8 3 4 8 5 7 6 3 6 9 11 8 7 6
Wind_Direction
354 351 347 342 339 336 332 327 324 319 314 307 300 294 291 291 288 272 244 221 201 235 27 144 156 146 121 183 171 140 172 208 216 183 231 113 290 302 38 123 58 26 32 308 124
352 349 346 342 338 333 331 327 324 319 313 308 301 293 291 297 292 264 247 228 221 209 205 174 183 153 170 187 190 177 209 224 193 203 211 125 43 329 141 112 210 87 35 99 132
350 347 344 341 336 333 330 327 324 317 310 306 303 287 286 303 295 244 273 228 230 221 181 196 175 164 193 163 201 200 229 224 239 231 285 225 256 202 186 237 229 209 154 157 156
349 347 344 339 335 333 329 326 322 315 309 305 301 283 244 218 251 196 338 297 210 208 170 158 157 170 191 200 202 221 218 232 184 230 224 221 204 232 186 232 217 195 147 161 169
347 346 344 340 337 335 331 325 319 311 304 299 298 257 206 219 250 284 312 316 166 171 194 186 178 186 186 190 206 231 220 198 228 250 254 278 244 235 216 246 100 130 153 176 186
347 345 343 340 338 337 332 324 319 313 299 281 258 198 212 261 254 312 288 340 133 165 184 183 198 182 204 212 200 211 193 235 249 239 212 215 250 157 246 218 140 160 183 185 187
345 343 342 339 338 336 331 324 325 321 288 248 209 173 230 250 251 334 331 188 141 165 170 193 187 170 175 275 224 246 274 271 221 206 231 193 256 226 230 204 186 197 199 191 197
344 343 341 339 337 335 330 320 324 330 41 188 178 180 244 248 265 277 268 253 126 171 141 157 120 173 177 288 9 221 167 234 204 192 225 159 249 258 230 173 221 208 199 198 194
344 342 339 338 336 336 327 314 317 323 327 155 148 168 258 298 220 231 171 187 146 130 149 141 134 173 150 146 342 250 226 207 294 205 160 192 233 212 229 191 231 139 191 197 172
340 339 337 337 336 336 325 314 307 354 120 199 176 254 255 239 206 176 170 148 143 118 100 149 114 173 172 172 221 209 217 216 191 209 192 219 245 289 18 121 71 50 12 193 178
340 337 336 337 335 335 334 357 9 344 21 258 265 279 302 311 275 206 166 120 108 120 173 195 174 208 207 218 232 105 212 209 182 247 199 227 250 256 108 74 43 18 13 28 131
339 336 336 336 332 337 9 76 159 258 293 263 244 249 256 16 297 265 117 154 154 182 143 85 240 220 200 203 217 224 247 247 261 262 194 268 269 121 44 46 36 4 10 9 108
337 336 336 335 325 27 311 159 284 260 272 289 224 210 224 158 220 247 154 162 164 166 186 178 238 181 194 195 209 221 226 230 241 219 241 220 266 188 75 89 51 21 355 20 118
335 333 334 334 340 332 279 325 304 176 292 279 273 265 108 154 231 174 194 149 194 201 178 226 242 239 173 219 193 238 196 222 231 176 233 172 277 225 159 142 54 13 18 30 76
333 330 330 335 276 314 287 332 306 220 329 151 108 220 129 181 187 204 70 57 203 191 130 233 206 184 199 211 172 225 188 202 205 209 291 252 199 240 147 203 180 348 19 40 51
332 327 329 332 270 248 333 315 246 235 248 337 41 2 5 359 317 51 112 65 129 203 205 242 347 214 182 73 164 135 85 60 66 133 231 192 190 257 194 212 143 162 77 56 53
333 324 329 335 272 305 336 9 312 221 340 7 347 335 352 304 335 235 163 162 214 135 239 267 210 156 150 104 43 117 122 165 332 332 230 259 175 211 314 326 178 143 102 60 60
335 321 321 300 285 321 26 20 233 45 356 356 318 315 78 15 1 2 22 30 36 5 179 212 271 178 178 187 174 181 180 170 200 194 239 321 218 258 253 301 80 104 110 93 77
339 317 313 278 324 358 68 299 323 1 316 331 319 350 30 17 343 354 74 5 34 21 254 261 237 8 56 80 44 191 213 59 101 174 77 164 22 343 112 77 79 96 99 100 88
330 331 289 327 332 55 89 230 50 352 329 327 339 35 353 348 20 18 352 1 357 14 346 3 296 17 106 101 42 128 140 150 201 203 200 152 174 217 182 166 141 115 108 87 97
18 341 269 334 54 32 26 11 332 344 347 332 323 305 326 328 11 311 347 52 346 6 48 1 351 19 325 359 170 104 160 209 315 290 194 147 242 225 172 154 145 124 122 143 142
356 321 324 8 39 360 337 325 295 315 331 234 249 264 276 315 340 270 4 185 346 335 58 261 321 317 11 351 31 357 198 145 205 189 54 45 298 2 129 121 123 125 149 158 142
326 288 316 46 37 341 319 323 283 321 332 1 304 34 331 195 5 344 325 293 352 41 141 299 46 322 254 89 20 16 353 62 78 78 100 116 137 90 115 125 135 147 158 159 157
324 322 314 33 6 10 327 312 328 317 298 267 278 243 229 269 209 281 311 21 328 339 338 88 66 136 234 330 23 322 359 55 88 92 100 53 127 145 136 138 155 172 155 148 137
13 320 326 321 337 324 285 268 310 339 305 313 312 271 260 230 264 210 97 341 308 341 32 99 151 165 267 281 244 250 292 274 119 133 109 201 111 157 163 168 178 146 142 135 132
334 313 309 283 284 325 312 326 300 326 270 310 284 309 298 218 200 204 127 177 230 337 65 352 256 83 301 359 4 236 243 257 229 131 62 139 151 227 86 110 138 150 146 130 129
255 230 267 291 329 338 344 340 316 331 299 276 315 309 6 34 298 242 215 225 207 149 200 133 153 82 276 311 3 348 233 213 177 163 149 163 213 156 148 156 157 148 143 144 135